Location: Arpaise
(41.0333°N, 14.7333°E)
Time: 08:16:07
(UTC+00:00)

USA 186 - Pass Details

Date: 05 July 2020
Orbit: 262 x 437 km, 96.9° (Epoch: 06 August)

Event Time Altitude Azimuth Distance (km) Brightness Sun altitude
Rises 19:17:21 0° 196° (SSW) 2,423 5.4 -7.2°
Reaches altitude 10° 19:19:42 10° 212° (SSW) 1,553 4.6 -7.5°
Maximum altitude 19:22:21 22° 265° (W) 1,016 4.3 -7.9°
Drops below altitude 10° 19:24:59 10° 317° (NW) 1,532 6.3 -8.3°
Sets 19:27:17 0° 334° (NNW) 2,380 7.0 -8.6°
